User: anonymous   Login
Location: Melbourne
(37.8170°S, 144.9670°E)
Time: 11:58:57
(UTC+10:00)
Language:

ERBS - Orbit

View from above orbital plane
View from above orbital plane
View from above satellite
View from above satellite

Ground track
Ground track

The orbit data is extracted from the following two-line orbital elements,

1 15354U 84108B   16148.91800171 +.00003811 +00000-0 +10098-3 0  9990
2 15354 057.0099 353.5794 0017490 091.9238 268.3819 15.40736463738496
Epoch (UTC): 27 May 2016 22:01:55
Eccentricity: 0.0017490
inclination: 57.0099°
perigee height: 432 km
apogee height: 456 km
right ascension of ascending node: 353.5794°
argument of perigee: 91.9238°
revolutions per day: 15.40736463
mean anomaly at epoch: 268.3819°
orbit number at epoch: 73849

The dashed part of the orbit path shows where the satellite is in the earth's shadow,  

DLR